Torna al catalogo

CZ-4C R/B

AttivoPO
NORAD 43264·ROCKET BODY·🇨🇳 China

Lanciato Mar 31, 2018 da Taiyuan Satellite Launch Center

Loading…

Prossimi Passaggi (prossime 24 ore)

TLE

AggiornatoSource: Space-Track

Epoca: Sep 14, 2026, 12:47 UTC

1 43264U 18031F   26257.53264048  .00006146  00000-0  22893-3 0  9990
2 43264  98.1274 186.2406 0077229  88.7385 272.2697 15.25078016464874

Traccia CZ-4C R/B in tempo reale con AllMySat

Download on the App Store